Wetbulb
41.56 43.79 43.73 43.68 43.67 42.82 43.15 43.11 43.01 41.48 39.68 37.73 37.17 35.65 35.44 34.89 34.79 34.63 33.85 33.43 33.32 33.19
37.02 38.95 40.86 42.35 42.82 43.24 43.55 42.70 40.89 40.17 38.53 37.48 36.97 35.82 35.02 34.30 34.14 34.44 33.96 33.62 33.34 32.97
34.86 36.07 38.33 40.64 40.82 40.97 41.06 40.57 40.44 39.62 38.51 37.21 36.25 35.33 34.70 34.03 34.18 33.61 33.47 33.69 33.43 33.23
34.14 34.02 35.30 36.88 37.76 39.63 39.10 38.28 38.68 38.42 37.87 36.77 35.30 35.26 34.61 34.04 33.85 33.42 32.79 33.57 33.56 33.34
33.12 33.14 32.32 32.44 34.17 35.98 36.60 36.89 37.14 37.76 37.22 36.81 36.19 35.54 35.07 33.94 34.04 33.23 32.70 33.08 33.22 33.02
30.51 31.14 30.95 30.59 31.65 32.51 32.77 33.15 35.01 36.33 36.47 35.89 35.50 35.28 35.16 34.25 33.67 33.28 33.26 33.50 33.37 32.96
28.98 29.62 29.77 30.19 29.81 30.01 29.85 30.94 32.75 34.33 34.79 34.76 34.29 34.26 33.55 33.49 33.10 32.81 32.59 33.10 33.17 33.20
25.54 26.53 26.63 28.14 28.30 27.97 28.10 30.21 30.45 31.63 32.28 33.50 33.97 33.83 33.15 33.23 33.02 32.30 31.31 31.58 32.54 33.09
20.33 22.60 24.51 28.71 30.02 25.75 26.00 26.17 25.90 30.36 31.91 32.52 33.67 35.86 36.08 34.49 32.68 32.07 31.78 31.29 30.91 32.20
13.91 18.51 19.93 25.18 28.42 31.22 28.15 27.76 26.98 27.88 28.33 31.98 33.45 36.32 36.93 35.60 32.83 32.12 31.85 31.67 31.40 31.67
15.60 15.77 18.27 21.82 24.57 28.00 30.60 30.75 29.68 28.74 29.45 30.54 32.07 36.43 37.28 35.19 32.28 31.89 31.14 31.29 31.50 32.63
15.71 15.52 18.64 22.53 20.78 24.78 29.84 32.00 31.57 30.60 29.36 29.99 31.19 36.30 37.30 34.93 30.86 30.34 29.32 29.34 30.45 31.36
19.61 15.04 15.57 17.18 20.84 22.67 26.50 31.72 32.29 31.62 31.11 30.44 31.98 35.81 37.35 35.16 32.07 30.50 29.60 26.95 27.26 29.92
19.24 20.03 17.58 19.65 21.45 22.54 25.08 30.77 32.28 31.03 31.84 31.34 31.40 32.04 37.12 36.97 32.44 32.37 30.27 28.91 27.38 28.90
MSLP
1018.25 1018.06 1018.04 1018.10 1018.38 1018.81 1019.13 1019.42 1019.79 1020.42 1020.54 1021.25 1021.98 1021.86 1022.33 1022.70 1023.01 1023.26 1023.53 1023.77 1024.06 1024.37
1018.95 1018.77 1018.59 1018.46 1018.42 1018.55 1018.90 1019.05 1019.48 1019.79 1020.32 1021.00 1021.56 1021.76 1022.20 1022.53 1022.75 1023.05 1023.47 1023.77 1023.97 1024.23
1019.54 1019.29 1018.89 1018.60 1018.43 1018.53 1018.61 1018.60 1019.08 1019.55 1020.31 1020.66 1021.19 1021.59 1022.02 1022.28 1022.63 1022.88 1023.36 1023.76 1023.98 1024.13
1019.78 1019.42 1019.20 1018.86 1018.69 1018.67 1018.64 1018.73 1018.94 1019.29 1019.69 1020.24 1020.80 1021.33 1021.85 1021.97 1022.46 1022.81 1023.26 1023.66 1023.88 1024.00
1020.01 1019.79 1019.50 1019.40 1019.09 1018.77 1018.76 1018.76 1018.73 1018.97 1019.38 1019.83 1020.29 1020.80 1021.50 1021.73 1022.10 1022.60 1023.02 1023.35 1023.61 1023.92
1020.10 1019.98 1019.92 1019.63 1019.32 1018.92 1018.68 1018.61 1018.66 1018.86 1019.24 1019.34 1020.10 1020.53 1020.89 1021.25 1021.81 1022.23 1022.64 1022.92 1023.27 1023.74
1020.52 1020.01 1019.93 1019.84 1019.38 1019.01 1018.67 1018.58 1018.52 1018.61 1018.72 1019.12 1019.45 1020.06 1020.44 1020.87 1021.51 1021.89 1022.44 1022.58 1022.97 1023.46
1020.86 1020.29 1019.75 1019.60 1019.42 1018.92 1018.67 1018.41 1018.32 1018.47 1018.63 1018.84 1019.19 1019.51 1019.96 1020.63 1020.97 1021.68 1022.28 1022.49 1022.70 1023.22
1021.10 1020.46 1019.99 1019.54 1019.33 1019.07 1018.56 1018.43 1018.31 1018.31 1018.27 1018.50 1018.81 1018.83 1019.31 1019.95 1020.63 1021.34 1021.88 1022.37 1022.55 1023.07
1021.34 1020.92 1020.24 1019.72 1019.40 1019.06 1018.64 1018.25 1018.24 1018.09 1018.06 1018.15 1018.20 1018.46 1018.86 1019.49 1020.14 1020.86 1021.50 1021.97 1022.42 1022.87
1021.35 1021.27 1020.29 1020.01 1019.60 1019.12 1018.62 1018.14 1018.09 1017.95 1017.82 1017.74 1017.63 1018.21 1018.51 1019.16 1019.93 1020.48 1021.15 1021.67 1022.07 1022.54
1020.95 1020.94 1020.47 1020.18 1019.73 1019.22 1018.60 1017.91 1017.60 1017.58 1017.51 1017.50 1017.30 1017.60 1018.23 1018.79 1019.65 1020.26 1020.80 1021.46 1021.89 1022.36
1020.34 1020.37 1020.27 1019.88 1019.53 1019.10 1018.51 1017.67 1017.04 1016.93 1017.03 1016.90 1016.88 1017.10 1017.69 1018.34 1018.95 1019.78 1020.48 1021.25 1021.72 1022.13
1019.71 1019.62 1019.60 1019.35 1019.28 1018.73 1018.12 1017.46 1016.59 1016.28 1016.39 1016.43 1016.54 1016.74 1017.11 1017.82 1018.27 1018.70 1019.77 1020.54 1021.21 1021.60
Wind_Speed
10 3 3 4 4 5 6 7 8 8 7 7 6 5 5 3 3 3 3 5 3 3
9 9 5 4 4 4 6 5 8 8 7 7 6 6 6 4 5 4 4 4 4 3
8 8 7 5 5 5 5 6 7 8 8 8 6 6 6 4 4 5 3 3 5 4
9 9 9 6 5 4 3 6 6 8 9 8 8 7 6 6 6 6 5 4 5 5
7 8 8 8 7 5 6 5 6 6 7 8 9 9 9 8 8 7 7 7 6 6
7 7 9 8 8 6 5 5 5 7 8 9 9 10 9 9 8 8 7 7 7 6
8 7 7 9 7 7 4 4 5 6 6 7 9 8 8 8 8 7 6 6 6 6
7 5 4 7 7 6 6 4 4 5 5 6 8 8 10 9 9 8 6 5 6 6
7 6 6 8 9 6 5 5 3 6 7 8 7 14 18 13 9 8 9 8 5 6
4 6 5 6 9 9 6 3 5 5 5 8 8 16 19 17 9 9 8 8 8 6
4 4 5 6 7 9 5 5 5 5 6 6 7 16 19 18 9 8 8 8 9 9
4 4 4 8 8 9 10 6 6 4 7 8 7 17 19 18 9 8 8 7 8 10
4 4 4 5 8 7 8 10 6 7 7 9 9 17 20 18 8 9 7 6 6 13
5 5 5 6 7 8 9 11 8 7 7 9 9 11 21 22 10 9 8 8 7 7
Wind_Direction
0 309 248 190 168 184 195 190 182 197 181 181 202 171 170 171 172 177 182 175 175 167
1 353 303 249 195 188 193 187 183 176 184 180 188 174 171 171 170 166 169 174 158 143
358 350 336 309 241 209 196 173 181 180 187 181 178 174 172 160 165 157 165 165 158 144
356 355 349 342 307 267 205 195 188 185 181 181 175 173 173 162 163 166 163 163 167 162
357 352 356 346 336 310 239 210 198 183 190 184 185 174 178 174 172 173 176 176 164 169
0 359 345 335 328 317 267 218 200 181 193 186 186 179 179 171 173 175 180 173 168 169
345 346 338 324 322 319 271 215 202 204 192 188 172 174 170 166 171 171 182 169 163 169
319 320 318 327 317 318 299 243 210 188 185 169 178 178 171 176 167 175 174 172 165 169
323 327 329 336 325 313 307 276 203 208 188 185 197 189 182 173 171 173 176 182 164 162
311 320 316 326 326 316 299 268 239 220 187 205 199 194 184 177 170 171 179 173 168 162
288 300 325 325 318 314 292 259 247 228 217 211 199 202 187 175 165 167 172 176 171 169
263 293 323 321 312 307 306 271 241 226 213 213 205 197 191 172 166 168 169 170 170 169
248 255 275 281 297 292 290 280 242 235 221 215 214 198 192 179 168 169 167 163 173 174
260 272 257 277 277 282 288 281 247 226 227 216 206 200 197 191 183 179 173 183 183 184